Powrót do katalogu

STARLINK-5930

AktywnyŁącznośćVLEO
NORAD 55928·PAYLOAD·🇺🇸 United States

Wystrzelony Mar 17, 2023 z Vandenberg Space Force Base

Loading…

Następne Przeloty (najbliższe 24 godziny)

TLE

ŚwieżeSource: CelesTrak SupGP

Epoka: Sep 14, 2026, 21:36 UTC

1 55928C 23037Q   26257.90048611 -.00036234  00000+0 -30358-2 0  2572
2 55928  70.0024 187.2359 0003062 268.4819  64.2199 14.98358720    17

Śledź STARLINK-5930 w czasie rzeczywistym z AllMySat

Download on the App Store